Regional Weather Roundup
Issued by NWS Upton, NY

Current Version | Previous Version | Text Only | Print | Product List | Glossary On
Versions: 1 2 3 4 5 6 7 8 9 10 11 12 13 14 15 16 17 18 19 20 21 22 23 24 25 26 27
000 ASUS41 KOKX 152308 RWROKX REGIONAL WEATHER ROUNDUP NATIONAL WEATHER SERVICE NEW YORK NY 600 PM EST SUN JAN 15 2017 NOTE: "FAIR" INDICATES FEW OR NO CLOUDS BELOW 12,000 FEET WITH NO SIGNIFICANT WEATHER AND/OR OBSTRUCTIONS TO VISIBILITY. NYZ071-072-176-178-NJZ106-104-160000- NEW YORK CITY METRO AREA CITY SKY/WX TMP DP RH WIND PRES REMARKS Central Park CLEAR 37 20 50 CALM 30.38R Wall St Helipt CLEAR 38 21 50 W6 30.38R WCI 33 Bronx Bot Gard NOT AVBL LaGuardia APRT PTCLDY 39 22 50 NW12 30.37R WCI 32 Kennedy INTL MOCLDY 38 19 46 NW8 30.38R WCI 32 Breezy Point N/A 36 N/A N/A NW5 N/A WCI 32 Newark/Liberty MOCLDY 37 20 50 NW9 30.38R WCI 30 Teterboro CLEAR 36 21 54 NW7 30.37R WCI 30 $$ NYZ177-179-078>081-160000- LONG ISLAND NEW YORK CITY SKY/WX TMP DP RH WIND PRES REMARKS Jones Beach N/A 36 N/A N/A W2 N/A Matinecock PT NOT AVBL Farmingdale CLEAR 34 21 59 W3 30.36R MacArthur/ISP PTCLDY 28 22 78 W5 30.35R WCI 23 Shirley CLEAR 28 21 75 CALM 30.36R Westhampton CLEAR 25 19 78 CALM 30.36R Southampton NOT AVBL Bridgehampton NOT AVBL East Hampton N/A 26 19 73 CALM 30.35R Montauk N/A 32 20 61 CALM 30.35R $$ NYZ052-065-067-160000- HUDSON VALLEY CITY SKY/WX TMP DP RH WIND PRES REMARKS White Plains CLEAR 33 18 53 W5 30.33R WCI 29 Newburgh CLEAR 32 21 64 W7 30.34R WCI 26 Montgomery CLEAR 28 19 69 SW6 30.33R WCI 22 Poughkeepsie CLEAR 29 19 66 CALM 30.34R Albany CLEAR 28 14 55 W7 30.37R WCI 21 $$ NJZ001-105-106-008-010-013-015-019>022-104-160000- NEW JERSEY CITY SKY/WX TMP DP RH WIND PRES REMARKS Newark/Liberty MOCLDY 37 20 50 NW9 30.38R WCI 30 Teterboro CLEAR 36 21 54 NW7 30.37R WCI 30 Caldwell CLEAR 32 19 58 CALM 30.38R Somerville CLEAR 30 20 66 CALM 30.36R Linden N/A 35 20 55 CALM 30.38R Sussex CLEAR 30 19 63 VRB3 30.36R Andover N/A 30 19 63 CALM 30.36R Trenton CLOUDY 33 21 61 NW5 30.37R WCI 29 Millville PTCLDY 30 27 88 CALM 30.38R Atlantic City CLEAR 34 22 61 N6 30.37R WCI 29 Wrightstown PTCLDY 32 21 64 CALM 30.36R Toms River CLOUDY 31 23 72 CALM 30.38R Belmar CLEAR 33 21 61 W6 30.38R WCI 28 $$ PAZ047>061-062-071-160000- EASTERN PENNSYLVANIA CITY SKY/WX TMP DP RH WIND PRES REMARKS Philadelphia MOCLDY 36 20 52 N10 30.40R WCI 28 Allentown CLEAR 29 18 63 CALM 30.37S Scranton PTCLDY 28 18 66 CALM 30.36R $$ CTZ002-004>006-009-010-012-RIZ004-006-007-MAZ004-011-015-160000- SOUTHERN NEW ENGLAND IN CT CITY SKY/WX TMP DP RH WIND PRES REMARKS Bradley INTL CLEAR 31 15 52 NW7 30.35R WCI 24 Hartford CLEAR 35 14 42 CALM 30.35R Danbury CLEAR 28 20 71 CALM 30.34R Wtrbury/Oxford NOT AVBL Bridgeport CLEAR 37 19 48 W5 30.35R WCI 33 Meriden CLEAR 30 17 58 CALM 30.34R New Haven PTCLDY 30 19 63 CALM 30.34R Chester N/A 32 14 47 NW5 30.33R WCI 27 Groton CLEAR 30 16 56 CALM 30.34R Wilimantic CLEAR 29 20 69 CALM 30.35R IN RI CITY SKY/WX TMP DP RH WIND PRES REMARKS Providence PTCLDY 34 13 41 W3 30.34R Block Island NOT AVBL Westerly CLEAR 31 17 56 CALM 30.35R IN MA CITY SKY/WX TMP DP RH WIND PRES REMARKS Boston CLEAR 35 13 40 NW7 30.35R WCI 29 Worcester CLEAR 28 11 48 W8 30.29R WCI 20 Westfield CLEAR 28 17 63 CALM 30.34R Provincetown CLEAR 34 16 47 N12 30.34R WCI 25 Nantucket CLEAR 32 18 56 N9 30.33R WCI 24 $$ ANZ330-335-338-340-345-350-353-355-160000- COASTAL MARINE OBSERVATIONS STATION/POSITION TIME SKY/WX TEMP WIND PRES VSBY WAVE AIR SEA DIR/SP/G HT/PER (UTC) (F) (DEG/KT/KT) (MB) (MI) (FT/S) NY HARB ENTRANCE 2150 38 44 320/ 8/ 12 1027.4 2/11 20 S FIRE ISLAND 2250 38 45 340/ 8/ 10 1028.2 2/11 GREAT SOUTH BAY NOT AVBL 23 SSW MONTAUK P 2150 37 47 320/ 8/ 12 1027.5 2/11 15 E BARNEGAT LI 2230 45 N/A 2/11 HUDSON CANYON 2150 40 53 1027.2 4/ 5 KINGS POINT 2230 38 38 1027.7 EXECUTION ROCKS 2245 38 280/ 8/ 10 N/A CENTRAL LI SOUND 2230 40 340/ 6/ 8 N/A 1 EASTERN LI SOUND NOT AVBL ROBBINS REEF 2230 37 320/ 5/ 7 1028.4 $$ >>>>>>>>>>>>>>>>>>>>>>>>>>>> KEY <<<<<<<<<<<<<<<<<<<<<<<<<<< > < > SKY/WX - Sky Condition/Present Weather < > TMP - Temperature in Fahrenheit < > DP - Dew Point in Fahrenheit < > RH - Relative Humidity in Percent < > WIND - Direction (from) and Speed in MPH < > PRES - Mean Sea Level Pressure (inches of Hg) < > WCI - Wind Chill Index < > VSB - VISIBILITY IN MILES < > HX - HEAT INDEX < > TC - TEMPERATURE IN CELSIUS < > VRB - VARIABLE WIND DIRECTION < > < >>>>>>>>>>>>>>>>>>>>>>>>>>>> KEY <<<<<<<<<<<<<<<<<<<<<<<<<<<

USA.gov is the U.S. government's official web portal to all federal, state and local government web resources and services.